| DS18B20 | SHTC3 | ||||||
|---|---|---|---|---|---|---|---|
| ID | Date d/m/Y & Time | data1 สูง | data2 ต่ำ | data3 นอก | temp pcb | hum pcb | Time |
| 10936 | 11/04/2026 19:08:47 | 31.4  | 31.6  | 30.7  | 31.4  | 71.5  | 19:08 |
| 10935 | 11/04/2026 19:04:06 | 31.4  | 31.6  | 30.7  | 31.5  | 71.4  | 19:04 |
| 10934 | 11/04/2026 18:59:22 | 31.4  | 31.6  | 30.7  | 31.5  | 71.2  | 18:59 |
| 10933 | 11/04/2026 18:54:39 | 31.4  | 31.7  | 30.7  | 31.5  | 71.0  | 18:54 |
| 10932 | 11/04/2026 18:49:53 | 31.5  | 31.7  | 30.7  | 31.6  | 70.8  | 18:49 |
| 10931 | 11/04/2026 18:45:11 | 31.6  | 31.8  | 30.9  | 31.6  | 70.6  | 18:45 |
| 10930 | 11/04/2026 18:40:29 | 31.6  | 31.8  | 30.9  | 31.6  | 70.4  | 18:40 |
| 10929 | 11/04/2026 18:35:48 | 31.6  | 31.8  | 31.0  | 31.7  | 70.2  | 18:35 |
| 10928 | 11/04/2026 18:31:05 | 31.7  | 31.9  | 30.9  | 31.6  | 70.0  | 18:31 |
| 10927 | 11/04/2026 18:26:21 | 31.8  | 31.9  | 31.0  | 31.8  | 69.8  | 18:26 |
| 10926 | 11/04/2026 18:21:40 | 31.8  | 32.0  | 31.2  | 31.7  | 69.7  | 18:21 |
| 10925 | 11/04/2026 18:16:58 | 31.9  | 32.0  | 31.4  | 32.0  | 69.5  | 18:16 |
| 10924 | 11/04/2026 18:12:16 | 31.9  | 32.0  | 31.4  | 31.8  | 69.3  | 18:12 |
| 10923 | 11/04/2026 18:07:35 | 31.9  | 32.1  | 31.3  | 32.0  | 69.4  | 18:07 |
| 10922 | 11/04/2026 18:02:53 | 31.9  | 32.1  | 31.4  | 32.1  | 69.3  | 18:02 |
| 10921 | 11/04/2026 17:58:11 | 31.9  | 32.1  | 31.4  | 32.0  | 68.9  | 17:58 |
| 10920 | 11/04/2026 17:53:30 | 32.1  | 32.2  | 31.5  | 32.1  | 69.0  | 17:53 |
| 10919 | 11/04/2026 17:48:46 | 32.1  | 32.2  | 31.5  | 32.2  | 68.9  | 17:48 |
| 10918 | 11/04/2026 17:44:04 | 32.2  | 32.2  | 31.7  | 32.2  | 68.8  | 17:44 |
| 10917 | 11/04/2026 17:39:23 | 32.1  | 32.2  | 31.6  | 32.1  | 68.4  | 17:39 |
| 10916 | 11/04/2026 17:34:40 | 32.2  | 32.3  | 31.7  | 32.3  | 68.3  | 17:34 |
| 10915 | 11/04/2026 17:29:58 | 32.2  | 32.3  | 31.8  | 32.2  | 68.0  | 17:29 |
| 10914 | 11/04/2026 17:25:17 | 32.2  | 32.4  | 31.8  | 32.1  | 68.2  | 17:25 |
| 10913 | 11/04/2026 17:20:33 | 32.3  | 32.4  | 31.9  | 32.3  | 68.1  | 17:20 |